Location: Hermaringen
(48.5952°N, 10.2585°E)
Time: 00:46:14
(UTC+00:00)

SKYMED 2 - Pass Details

Date: 18 November 2025
Orbit: 621 x 623 km, 97.9° (Epoch: 05 December)

Event Time Altitude Azimuth Distance (km) Brightness Sun altitude
Exits shadow 18:03:25 14° 1° (N) 1,723 5.8 -24.1°
Maximum altitude 18:06:55 50° 289° (WNW) 800 4.4 -24.7°
Drops below altitude 10° 18:11:05 10° 215° (SW) 1,988 6.6 -25.4°
Sets 18:13:18 0° 210° (SSW) 2,889 7.4 -25.7°
